Voltar ao catálogo

MIDAS 3

AtivoMilitarPO
NORAD 163·PAYLOAD·🇺🇸 United States

Lançado Jul 12, 1961 de Vandenberg Space Force Base

Loading…

Próximas Passagens (próximas 24 horas)

TLE

AtualizadoSource: Space-Track

Época: Sep 5, 2026, 09:30 UTC

1 00163U 61018A   26248.39640582  .00000009  00000-0  26156-2 0  9996
2 00163  91.1259 208.7021 0102891  67.7648 293.4102  8.91839497121168

Acompanhe MIDAS 3 em tempo real com AllMySat

Download on the App Store